FW6665 Weather Reports


Display with metric or nautical units.
time (UTC)temp
F
wind
direction
speed
MPH
gust
MPH
rain 1hr
in
rain 24hr
in
rain mn
in
humidity
%
barometer
mb
20260904030204 69 192 4.0 12.0 0.00 0.00 0.00 77 1009.7
20260904025704 69 217 4.0 12.0 0.00 0.00 0.00 77 1009.7
20260904024706 69 186 5.0 10.0 0.00 0.00 0.00 77 1009.9
20260904024207 69 178 2.0 13.0 0.00 0.00 0.00 77 1009.9
20260904023706 69 257 3.0 13.0 0.00 0.00 0.00 77 1009.8
20260904023207 69 44 3.0 10.0 0.00 0.00 0.00 77 1009.8
20260904022703 69 158 4.0 15.0 0.00 0.00 0.00 77 1009.8
20260904021703 69 151 3.0 11.0 0.00 0.00 0.00 77 1010.0
20260904021204 69 204 3.0 12.0 0.00 0.00 0.00 77 1010.1
20260904015704 69 241 2.0 16.0 0.00 0.00 0.00 77 1010.1
20260904015204 69 210 3.0 16.0 0.00 0.00 0.00 77 1010.2
20260904014710 69 110 3.0 16.0 0.00 0.00 0.00 77 1010.3
20260904014204 69 186 4.0 12.0 0.00 0.00 0.00 77 1010.4
20260904013704 69 204 3.0 12.0 0.00 0.00 0.00 77 1010.5
20260904013204 69 140 2.0 11.0 0.00 0.00 0.00 77 1010.6
20260904012704 69 180 3.0 11.0 0.00 0.00 0.00 77 1010.6
20260904012204 69 264 3.0 11.0 0.00 0.00 0.00 77 1010.7
20260904011704 69 20 3.0 6.0 0.00 0.00 0.00 77 1010.6
20260904011204 69 172 2.0 7.0 0.00 0.00 0.00 77 1010.7
20260904010704 69 250 2.0 9.0 0.00 0.00 0.00 77 1010.7
20260904010203 69 220 2.0 10.0 0.00 0.00 0.00 77 1010.8
20260904005704 68 173 3.0 10.0 0.00 0.00 0.00 77 1010.9
20260904005204 68 228 4.0 7.0 0.00 0.00 0.00 77 1011.0
20260904004705 68 97 2.0 9.0 0.00 0.00 0.00 77 1011.1
20260904004205 68 189 2.0 9.0 0.00 0.00 0.00 77 1011.2
20260904003704 68 183 1.0 9.0 0.00 0.00 0.00 77 1011.3
20260904003204 68 142 2.0 9.0 0.00 0.00 0.00 77 1011.4
20260904002704 68 176 1.0 7.0 0.00 0.00 0.00 77 1011.5
20260904002204 68 193 2.0 12.0 0.00 0.00 0.00 77 1011.6
20260904001705 68 183 1.0 12.0 0.00 0.00 0.00 77 1011.7
20260904001204 68 202 2.0 10.0 0.00 0.00 0.00 77 1011.8
20260904000704 68 180 2.0 10.0 0.00 0.00 0.00 77 1012.0
20260904000204 68 221 1.0 10.0 0.00 0.00 0.00 77 1012.1
20260903235704 68 278 3.0 9.0 0.00 0.00 0.00 77 1012.2
20260903235204 68 193 3.0 9.0 0.00 0.00 0.00 77 1012.2
20260903234714 68 130 3.0 10.0 0.00 0.00 0.00 77 1012.2
20260903234204 68 102 2.0 10.0 0.00 0.00 0.00 77 1012.2
20260903233707 68 219 1.0 10.0 0.00 0.00 0.00 77 1012.1
20260903233204 68 237 2.0 4.0 0.00 0.00 0.00 77 1012.2
20260903231204 69 169 0.0 6.0 0.00 0.00 0.00 77 1012.4
20260903230704 69 227 1.0 6.0 0.00 0.00 0.00 77 1012.5
20260903230233 69 193 2.0 7.0 0.00 0.00 0.00 77 1012.5
20260903225203 69 186 2.0 10.0 0.00 0.00 0.00 77 1012.4
20260903224704 69 207 2.0 10.0 0.00 0.00 0.00 77 1012.4
20260903224204 69 206 3.0 10.0 0.00 0.00 0.00 77 1012.4
20260903223704 69 179 2.0 10.0 0.00 0.00 0.00 77 1012.6
20260903223206 69 182 2.0 10.0 0.00 0.00 0.00 77 1012.8
20260903222704 70 234 3.0 11.0 0.00 0.00 0.00 77 1012.8
20260903222204 70 258 3.0 12.0 0.00 0.00 0.00 77 1012.8
20260903221204 70 179 3.0 11.0 0.00 0.00 0.00 77 1012.9
20260903220704 70 226 4.0 11.0 0.00 0.00 0.00 77 1013.0
20260903220204 70 195 3.0 10.0 0.00 0.00 0.00 77 1013.0
20260903215704 70 175 2.0 10.0 0.00 0.00 0.00 77 1013.1
20260903215204 70 220 1.0 10.0 0.00 0.00 0.00 77 1013.1
20260903214704 70 247 3.0 10.0 0.00 0.00 0.00 77 1013.1
20260903213704 70 210 3.0 10.0 0.00 0.00 0.00 77 1013.2
20260903213203 70 268 4.0 7.0 0.00 0.00 0.00 77 1013.2
20260903212704 70 178 2.0 9.0 0.00 0.00 0.00 77 1013.2
20260903212205 70 180 2.0 11.0 0.00 0.00 0.00 77 1013.1
20260903211205 70 264 3.0 12.0 0.00 0.00 0.00 77 1013.4
20260903210704 70 257 2.0 12.0 0.00 0.00 0.00 77 1013.3
20260903210204 70 161 3.0 9.0 0.00 0.00 0.00 77 1013.4
20260903205704 70 186 3.0 9.0 0.00 0.00 0.00 77 1013.5
20260903205204 70 261 2.0 9.0 0.00 0.00 0.00 77 1013.5
20260903204704 70 212 2.0 9.0 0.00 0.00 0.00 77 1013.4
20260903204203 70 180 3.0 9.0 0.00 0.00 0.00 77 1013.4
20260903203704 70 203 1.0 6.0 0.00 0.00 0.00 77 1013.4
20260903203203 70 185 2.0 7.0 0.00 0.00 0.00 77 1013.5
20260903202704 70 125 2.0 7.0 0.00 0.00 0.00 77 1013.5
20260903202204 70 162 1.0 7.0 0.00 0.00 0.00 77 1013.5
20260903201214 70 235 1.0 7.0 0.00 0.00 0.00 77 1013.4
20260903200704 70 233 2.0 7.0 0.00 0.00 0.00 77 1013.5
20260903195704 71 262 2.0 9.0 0.00 0.00 0.00 76 1013.5
20260903195204 71 200 1.0 9.0 0.00 0.00 0.00 76 1013.6
20260903194704 71 118 2.0 9.0 0.00 0.00 0.00 76 1013.5
20260903194204 71 133 2.0 7.0 0.00 0.00 0.00 76 1013.6
20260903193704 71 231 2.0 7.0 0.00 0.00 0.00 76 1013.6
20260903193204 71 202 2.0 7.0 0.00 0.00 0.00 75 1013.6
20260903192705 72 90 2.0 11.0 0.00 0.00 0.00 75 1013.6
20260903192204 72 234 3.0 11.0 0.00 0.00 0.00 75 1013.6
20260903191704 72 199 2.0 7.0 0.00 0.00 0.00 75 1013.6
20260903190704 72 195 2.0 9.0 0.00 0.00 0.00 75 1013.6
20260903190209 73 199 2.0 9.0 0.00 0.00 0.00 74 1013.5
20260903185707 73 230 1.0 6.0 0.00 0.00 0.00 74 1013.4
20260903185204 73 157 2.0 5.0 0.00 0.00 0.00 74 1013.4
20260903184704 73 165 2.0 7.0 0.00 0.00 0.00 73 1013.4
20260903184204 74 193 2.0 10.0 0.00 0.00 0.00 73 1013.3
20260903183704 74 172 1.0 10.0 0.00 0.00 0.00 72 1013.3
20260903183204 74 137 2.0 10.0 0.00 0.00 0.00 72 1013.3
20260903181704 74 234 3.0 7.0 0.00 0.00 0.00 71 1013.2
20260903181204 75 183 2.0 7.0 0.00 0.00 0.00 71 1013.2
20260903180709 75 55 3.0 11.0 0.00 0.00 0.00 70 1013.2
20260903180204 75 254 2.0 11.0 0.00 0.00 0.00 70 1013.3
20260903175205 76 231 2.0 9.0 0.00 0.00 0.00 69 1013.3
20260903174204 76 209 2.0 11.0 0.00 0.00 0.00 69 1013.4
20260903173704 76 138 2.0 11.0 0.00 0.00 0.00 69 1013.4
20260903173204 76 210 3.0 9.0 0.00 0.00 0.00 69 1013.3
20260903172730 76 152 3.0 7.0 0.00 0.00 0.00 68 1013.2
20260903172204 76 188 2.0 11.0 0.00 0.00 0.00 69 1013.2
20260903171704 76 161 2.0 11.0 0.00 0.00 0.00 69 1013.3
20260903171240 76 248 2.0 9.0 0.00 0.00 0.00 68 1013.5
20260903170204 76 264 4.0 9.0 0.00 0.00 0.00 69 1013.4
20260903165704 76 179 2.0 9.0 0.00 0.00 0.00 69 1013.4
20260903165204 76 203 2.0 9.0 0.00 0.00 0.00 68 1013.3
20260903164704 76 240 2.0 13.0 0.00 0.00 0.00 67 1013.4
20260903164204 77 176 3.0 13.0 0.00 0.00 0.00 67 1013.5
20260903163203 77 148 3.0 10.0 0.00 0.00 0.00 67 1013.5
20260903162704 77 241 3.0 10.0 0.00 0.00 0.00 66 1013.5
20260903162204 77 224 2.0 10.0 0.00 0.00 0.00 66 1013.5
20260903161704 78 231 2.0 10.0 0.00 0.00 0.00 66 1013.5
20260903161204 77 237 1.0 10.0 0.00 0.00 0.00 68 1013.6
20260903160704 77 161 2.0 10.0 0.00 0.00 0.00 67 1013.5
20260903155704 78 114 1.0 9.0 0.00 0.00 0.00 67 1013.6
20260903155205 78 80 2.0 9.0 0.00 0.00 0.00 67 1013.7
20260903154204 78 188 4.0 6.0 0.00 0.00 0.00 66 1013.6
20260903153706 78 159 2.0 7.0 0.00 0.00 0.00 65 1013.8
20260903153204 78 173 2.0 7.0 0.00 0.00 0.00 65 1013.8
20260903152704 78 164 2.0 9.0 0.00 0.00 0.00 65 1013.8
20260903152204 78 149 2.0 9.0 0.00 0.00 0.00 64 1014.0
20260903151704 78 251 1.0 9.0 0.00 0.00 0.00 63 1014.0
20260903151204 78 168 2.0 14.0 0.00 0.00 0.00 63 1013.9
20260903150704 78 266 4.0 14.0 0.00 0.00 0.00 61 1013.9
20260903145704 79 234 3.0 7.0 0.00 0.00 0.00 60 1014.1
20260903145205 79 207 2.0 16.0 0.00 0.00 0.00 60 1014.0
20260903144704 79 154 2.0 16.0 0.00 0.00 0.00 59 1013.8
20260903143704 79 250 2.0 15.0 0.00 0.00 0.00 56 1014.0
20260903143206 79 254 4.0 16.0 0.00 0.00 0.00 57 1014.1
20260903142704 79 199 4.0 16.0 0.00 0.00 0.00 57 1014.1
20260903142204 79 178 3.0 16.0 0.00 0.00 0.00 56 1014.0
20260903141705 79 262 6.0 16.0 0.00 0.00 0.00 55 1014.0
20260903141205 79 175 5.0 13.0 0.00 0.00 0.00 56 1014.0
20260903140704 79 258 6.0 13.0 0.00 0.00 0.00 56 1014.1
20260903135204 80 219 3.0 19.0 0.00 0.00 0.00 56 1014.2
20260903134705 79 243 3.0 19.0 0.00 0.00 0.00 56 1014.2
20260903134204 79 220 6.0 16.0 0.00 0.00 0.00 58 1014.4
20260903133711 78 193 4.0 16.0 0.00 0.00 0.00 59 1014.4
20260903133204 78 247 4.0 16.0 0.00 0.00 0.00 60 1014.5
20260903132704 78 231 4.0 16.0 0.00 0.00 0.00 60 1014.6
20260903132204 78 240 4.0 13.0 0.00 0.00 0.00 61 1014.5
20260903131205 78 264 3.0 13.0 0.00 0.00 0.00 61 1014.4
20260903130704 78 235 4.0 14.0 0.00 0.00 0.00 60 1014.6
20260903130209 77 254 4.0 14.0 0.00 0.00 0.00 61 1014.7
20260903125704 77 216 3.0 11.0 0.00 0.00 0.00 62 1014.7
20260903125204 76 265 2.0 11.0 0.00 0.00 0.00 63 1014.8
20260903124705 76 293 4.0 9.0 0.00 0.00 0.00 63 1014.8
20260903124205 76 250 4.0 11.0 0.00 0.00 0.00 63 1014.8
20260903123703 76 233 4.0 11.0 0.00 0.00 0.00 63 1014.9
20260903123203 76 230 3.0 12.0 0.00 0.00 0.00 63 1014.9
20260903122704 75 237 4.0 13.0 0.00 0.00 0.00 64 1015.0
20260903122204 75 230 4.0 13.0 0.00 0.00 0.00 64 1014.9
20260903121704 75 230 4.0 15.0 0.00 0.00 0.00 65 1015.0
20260903121204 75 244 6.0 15.0 0.00 0.00 0.00 65 1015.0
20260903120704 75 254 6.0 15.0 0.00 0.00 0.00 65 1014.9
20260903120205 75 254 5.0 10.0 0.00 0.00 0.00 65 1014.8
20260903115204 75 251 3.0 12.0 0.00 0.00 0.00 67 1014.8
20260903114204 75 269 4.0 10.0 0.00 0.00 0.00 67 1015.0
20260903113704 75 200 2.0 10.0 0.00 0.00 0.00 68 1015.0
20260903113204 74 197 2.0 12.0 0.00 0.00 0.00 68 1015.1
20260903112704 74 252 2.0 12.0 0.00 0.00 0.00 68 1015.0
20260903111704 74 228 4.0 9.0 0.00 0.00 0.00 68 1015.0
20260903111204 74 180 4.0 12.0 0.00 0.00 0.00 68 1015.0
20260903110704 74 281 2.0 12.0 0.00 0.00 0.00 68 1015.0
20260903110204 74 220 3.0 12.0 0.00 0.00 0.00 69 1015.1
20260903105205 73 247 4.0 14.0 0.00 0.01 0.00 69 1015.3
20260903104704 73 190 3.0 17.0 0.00 0.01 0.00 69 1015.2
20260903104204 73 265 4.0 17.0 0.00 0.01 0.00 69 1015.2
20260903103204 73 248 9.0 14.0 0.00 0.01 0.00 68 1015.2
20260903102705 73 166 2.0 14.0 0.00 0.01 0.00 69 1015.3
20260903102204 74 195 2.0 9.0 0.00 0.01 0.00 69 1015.4
20260903101703 73 244 2.0 9.0 0.00 0.01 0.00 70 1015.4
20260903101204 73 157 2.0 11.0 0.00 0.01 0.00 72 1015.3
20260903100726 72 247 3.0 11.0 0.00 0.01 0.00 72 1015.4
20260903100204 71 226 3.0 13.0 0.00 0.01 0.00 73 1015.4
20260903095704 71 168 3.0 13.0 0.00 0.01 0.00 73 1015.3
20260903095204 71 223 2.0 15.0 0.00 0.01 0.00 74 1015.6
20260903094704 71 250 4.0 15.0 0.00 0.01 0.00 73 1015.5
20260903094204 71 250 6.0 16.0 0.00 0.01 0.00 73 1015.4
20260903093204 71 234 5.0 16.0 0.00 0.01 0.00 74 1015.6
20260903092704 71 240 4.0 13.0 0.00 0.01 0.00 74 1015.6
20260903092204 70 237 5.0 13.0 0.00 0.01 0.00 75 1015.5
20260903091705 70 302 6.0 13.0 0.00 0.01 0.00 75 1015.6
20260903091204 70 223 4.0 14.0 0.00 0.01 0.00 75 1015.6
20260903090231 70 272 5.0 13.0 0.00 0.01 0.00 75 1015.4
20260903085205 70 244 3.0 15.0 0.00 0.01 0.00 76 1015.4
20260903084704 70 199 3.0 15.0 0.00 0.01 0.00 76 1015.3
20260903083704 70 245 7.0 11.0 0.00 0.01 0.00 77 1015.2
20260903083204 70 255 2.0 11.0 0.00 0.01 0.00 77 1015.1
20260903082704 69 254 4.0 9.0 0.00 0.01 0.00 77 1014.8
20260903082204 69 224 3.0 9.0 0.00 0.01 0.00 77 1014.8
20260903081704 69 259 3.0 9.0 0.00 0.01 0.00 77 1014.6
20260903081205 69 197 2.0 9.0 0.00 0.01 0.00 77 1014.6
20260903080205 69 258 3.0 7.0 0.00 0.01 0.00 77 1014.4
20260903075704 69 266 3.0 12.0 0.00 0.01 0.00 77 1014.4
20260903075205 69 131 3.0 12.0 0.00 0.01 0.00 77 1014.2
20260903074705 68 240 1.0 12.0 0.00 0.01 0.00 77 1014.2
20260903074204 68 190 2.0 9.0 0.00 0.01 0.00 77 1014.0
20260903073731 68 241 3.0 9.0 0.00 0.01 0.00 77 1014.1
20260903073204 68 272 2.0 9.0 0.00 0.01 0.00 77 1013.9
20260903072204 68 226 2.0 11.0 0.00 0.01 0.00 77 1013.8
20260903071204 68 178 2.0 11.0 0.00 0.01 0.00 77 1014.0
20260903070704 68 200 2.0 9.0 0.00 0.01 0.00 77 1014.1
20260903070209 67 224 1.0 9.0 0.00 0.01 0.00 77 1013.9
20260903065705 67 217 2.0 9.0 0.00 0.01 0.00 77 1014.0
20260903065205 67 178 2.0 10.0 0.00 0.01 0.00 77 1014.0
20260903064705 67 223 3.0 11.0 0.00 0.01 0.00 77 1014.2
20260903064204 67 241 4.0 11.0 0.00 0.01 0.00 77 1014.2
20260903063704 67 250 4.0 11.0 0.00 0.01 0.00 77 1014.3
20260903063204 67 240 3.0 9.0 0.00 0.01 0.00 77 1014.1
20260903062704 67 176 3.0 9.0 0.00 0.01 0.00 77 1014.0
20260903062204 67 248 2.0 9.0 0.00 0.01 0.00 77 1014.1
20260903061705 67 120 1.0 10.0 0.00 0.01 0.00 77 1014.0
20260903061204 67 212 1.0 10.0 0.00 0.01 0.00 76 1014.1
20260903060704 67 166 2.0 10.0 0.00 0.01 0.00 76 1014.0
20260903060204 67 110 2.0 10.0 0.00 0.01 0.00 76 1014.0
20260903055704 67 228 3.0 10.0 0.00 0.01 0.00 76 1014.0
20260903055205 67 175 2.0 6.0 0.00 0.01 0.00 76 1013.9
20260903054703 67 193 2.0 6.0 0.00 0.01 0.00 76 1013.9
20260903054204 67 204 1.0 6.0 0.00 0.01 0.00 76 1013.8
20260903053704 67 238 1.0 7.0 0.00 0.01 0.00 76 1013.7
20260903053204 67 207 2.0 7.0 0.00 0.01 0.00 76 1013.8
20260903052204 67 169 3.0 7.0 0.00 0.01 0.00 76 1013.6
20260903051704 67 203 2.0 7.0 0.00 0.01 0.00 76 1013.7
20260903051204 67 196 2.0 7.0 0.00 0.01 0.00 76 1013.6
20260903050704 67 196 4.0 7.0 0.00 0.01 0.00 76 1013.8
20260903050203 67 197 2.0 10.0 0.00 0.01 0.00 76 1013.8
20260903045714 67 102 2.0 10.0 0.00 0.01 0.00 76 1013.6
20260903045204 66 221 3.0 10.0 0.00 0.01 0.00 76 1013.7
20260903044704 66 178 2.0 7.0 0.00 0.01 0.00 76 1013.5
20260903044204 66 244 2.0 7.0 0.00 0.01 0.00 75 1013.4
20260903043704 66 240 1.0 7.0 0.00 0.01 0.00 75 1013.6
20260903043204 66 190 1.0 6.0 0.00 0.01 0.00 75 1013.5
20260903042704 66 199 2.0 6.0 0.00 0.01 0.00 75 1013.6
20260903042204 66 217 1.0 6.0 0.00 0.01 0.00 75 1013.6
20260903041704 66 190 2.0 6.0 0.00 0.01 0.00 75 1013.6
20260903040729 67 237 2.0 7.0 0.00 0.01 0.00 75 1013.7
20260903040204 67 204 1.0 5.0 0.00 0.01 0.00 75 1013.8
20260903035704 67 231 2.0 6.0 0.00 0.01 0.00 75 1013.7
20260903035204 67 196 2.0 9.0 0.00 0.01 0.00 75 1013.7
20260903034704 67 247 2.0 9.0 0.00 0.01 0.00 75 1013.6
20260903034205 67 180 2.0 9.0 0.00 0.01 0.00 75 1013.4
20260903033704 67 254 3.0 7.0 0.00 0.01 0.00 75 1013.5
20260903033204 66 157 2.0 10.0 0.00 0.01 0.00 75 1013.5
20260903032205 66 179 2.0 10.0 0.00 0.01 0.00 75 1013.7
20260903031204 66 199 2.0 7.0 0.00 0.01 0.00 75 1013.6
20260903030704 66 197 3.0 6.0 0.00 0.01 0.00 75 1013.6